Location: Dannhausen
(51.8650°N, 10.1026°E)
Time: 00:23:14
(UTC+00:00)

Cosmos 2322 - Pass Details

Date: 09 April 2020
Orbit: 839 x 856 km, 71.0° (Epoch: 04 June)

Event Time Altitude Azimuth Distance (km) Brightness Sun altitude
Rises 22:49:56 0° 330° (NNW) 3,430 7.9 -29.7°
Reaches altitude 10° 22:52:28 10° 335° (NNW) 2,493 7.0 -29.8°
Maximum altitude 22:58:04 52° 52° (NE) 1,059 4.2 -29.9°
Enters shadow 22:58:20 51° 62° (ENE) 1,064 4.2 -29.9°
